Regional Weather Roundup
Issued by NWS

Home | Current Version | Previous Version | Text Only | Print | Product List | Glossary Off
Versions: 1 2 3 4 5 6 7 8 9 10 11 12 13 14 15 16 17 18 19 20 21 22 23 24 25 26 27

000
ASUS45 KBOU 231007
RWRCO

WEATHER ROUNDUP FOR COLORADO
NATIONAL WEATHER SERVICE DENVER/BOULDER CO
300 AM MST MON JAN 23 2017

NOTE: "FAIR" INDICATES FEW OR NO CLOUDS BELOW 12000 FEET WITH NO
SIGNIFICANT WEATHER AND/OR OBSTRUCTIONS TO VISIBILITY.

COZ001>005-013-030-031-231100-
...NORTHWEST COLORADO...

CITY           SKY/WX    TMP DP  RH WIND       PRES   REMARKS
CRAIG          CLOUDY    28  20  71 E8        29.74R WCI  20
HAYDEN         MOCLDY    25  19  80 E7        29.73S WCI  17
MEEKER         CLOUDY    32  23  69 SW13      29.75F WCI  22
MOUNT WERNER   NOT AVBL
STEAMBOAT SPGS CLOUDY    23  20  87 CALM      29.73F
WALDEN           N/A     23  18  80 S15G21    29.70F WCI  10
$$

COZ006>008-011-231100-
...WEST CENTRAL VALLEYS...

CITY           SKY/WX    TMP DP  RH WIND       PRES   REMARKS
GRAND JUNCTION CLOUDY    35  29  78 SE16      29.83F WCI  25
MONTROSE       CLOUDY    29  27  92 CALM      29.89R
EAGLE          FLURRIES  24  22  91 CALM      29.83R
RIFLE          CLOUDY    29  27  92 E7        29.83S WCI  22
DELTA          CLOUDY    33  30  88 SW7       29.89R WCI  27
NUCLA          CLOUDY    34  28  80 SW7       29.92S WCI  28
$$

COZ017>023-064>068-231100-
...SOUTHWEST COLORADO...

CITY           SKY/WX    TMP DP  RH WIND       PRES   REMARKS
DURANGO        LGT SNOW  24  21  88 NE3       29.99F FOG
CORTEZ         CLOUDY    32  26  78 VRB5      29.96R WCI  27
PAGOSA SPRINGS LGT SNOW  23  23  99 CALM      29.99F
TELLURIDE      NOT AVBL
WOLF CREEK PAS CLOUDY     9   9 100 S20G32    29.91F WCI -11
$$

COZ009-010-012-014-032>034-037-058>063-231100-
...CENTRAL COLORADO...

CITY           SKY/WX    TMP DP  RH WIND       PRES   REMARKS
ASPEN          CLOUDY    22  20  92 CALM      29.77R
BUENA VISTA    CLOUDY    24  19  81 SE3       29.79F
COPPER MTN     LGT SNOW  23  18  80 MISG      29.75S VSB 1
BERTHOUD PASS  CLOUDY    18   7  62 MISG      29.70R
COTTONWOOD PAS LGT SNOW  23  19  86 N3        29.76F
GUNNISON       CLOUDY    20  17  88 NE3       29.86F
KREMMLING      MOCLDY    27  19  74 CALM      29.76F
LEADVILLE      LGT SNOW  16  12  84 NE5       29.74F FOG     WCI   9
MONARCH PASS   CLOUDY    14  10  85 SW13      29.87R WCI   0
SALIDA         FAIR      31  19  61 S21G36    29.86F WCI  18
SUNLIGHT       CLOUDY    18  16  93 SW17G30   29.79F WCI   2
WILKERSON PASS NOT AVBL
$$

COZ069>075-231100-
...SAN LUIS VALLEY/SANGRE DE CRISTO MOUNTAINS...

CITY           SKY/WX    TMP DP  RH WIND       PRES   REMARKS
ALAMOSA        CLOUDY    21  15  78 S7        29.91S WCI  12
LA VETA PASS   CLOUDY    21  18  86 NE16G31   29.89R WCI   7
SAGUACHE       MOCLDY    19  19 100 CALM      29.89F
$$

COZ035-036-038>040-231100-
...NORTHERN COLORADO FRONT RANGE...

CITY           SKY/WX    TMP DP  RH WIND       PRES   REMARKS
DENVER INTL AP MOCLDY    30  16  56 W6        29.68F WCI  24
DMNS CITY PARK   N/A     30  15  53 N2        29.69F
AURORA         MOCLDY    28  15  57 NW7       29.69S WCI  21
FRONT RANGE AP FAIR      32  21  64 NW9       29.68F WCI  24
ERIE MUNI ARPT FAIR      27  22  79 CALM      29.69F
BOULDER MUN AP FAIR      32  18  55 CALM      29.69S
CENTENNIAL     FAIR      38  20  48 NW10      29.68S
BROOMFIELD     FAIR      32  18  55 CALM      29.70R
FORT COLLINS   FAIR      27  18  69 N8        29.71R WCI  18
LONGMONT       CLOUDY    31  20  63 CALM      29.71F
$$

COZ041-046-047-076>085-087-088-231100-
...PIKES PEAK/PALMER DIVIDE AND SOUTHERN FOOTHILLS...

CITY           SKY/WX    TMP DP  RH WIND       PRES   REMARKS
COLO. SPRINGS  FAIR      25  14  63 N6        29.73F WCI  18
A. F. ACADEMY  FAIR      23  13  68 CALM      29.71F
SCHRIEVER AFB  NOT AVBL
ELLICOTT       FAIR     N/A N/A N/A S8        29.70F
FALCON         FAIR      25  14  63 W12       29.72F WCI  14
FORT CARSON    NOT AVBL
LIMON          FAIR      30  20  66 S13       29.71F WCI  20
MONUMENT HILL  FAIR      34  19  55 SW16      29.69S WCI  23
TRINIDAD       FAIR      29  19  66 E3        29.78F
$$

COZ042>045-048>051-090-091-231100-
...NORTHEAST COLORADO...

CITY           SKY/WX    TMP DP  RH WIND       PRES   REMARKS
GREELEY ARPT   FAIR      27  23  85 N5        29.69  WCI  22
AKRON          MOCLDY    33  21  61 S14       29.72F WCI  23
BURLINGTON     FAIR      35  26  69 S21       29.75F WCI  24
WRAY           NOT AVBL
STERLING       CLOUDY    32  25  74 E3        29.73F
HOLYOKE        FAIR      34  30  86 S7        29.77S WCI  28
FORT MORGAN    FAIR      31  21  67 E3        29.72F
$$

COZ086-089-092>099-231100-
...SOUTHEAST COLORADO...

CITY           SKY/WX    TMP DP  RH WIND       PRES   REMARKS
PUEBLO         FAIR      27  21  78 SE7       29.73F WCI  19
LA JUNTA       CLOUDY    33  22  63 S5        29.75F WCI  29
LAMAR          FAIR      28  22  78 CALM      29.80S
SPRINGFIELD      N/A     28  21  75 SW9       29.82F WCI  19
$$




USA.gov is the U.S. government's official web portal to all federal, state and local government web resources and services.